When you browse on this site, cookies collect data to enhance your experience and personalize the content and advertising you see.
Visit our Privacy Policy to learn more. By continuing to use the site, you agree to this use of cookies and data.
  • In Portugal
  • List of Countries
  • For 7 days
  • Water Temperature
  • Satellite Maps
  • Weather Map
  • Weather Widgets
  • user-avatar
    Login

    Hourly Weather Broda

    Today, 20 July, Saturday

    Time Temperature Precipitation Wind Pressure Humidity
    00:00 +15°C° 0 mm 0 mps 747 mmHg 89%
    01:00 +15°C° 0 mm 0 mps 747 mmHg 89%
    02:00 +16°C° 0 mm 1 mps 747 mmHg 89%
    03:00 +16°C° 0 mm 1 mps 748 mmHg 89%
    04:00 +16°C° 0 mm 1 mps 748 mmHg 89%
    05:00 +19°C° 0 mm 1 mps 748 mmHg 81%
    06:00 +19°C° 0 mm 0 mps 748 mmHg 73%
    07:00 +21°C° 0 mm 0 mps 749 mmHg 63%
    08:00 +23°C° 0 mm 0 mps 749 mmHg 56%
    09:00 +25°C° 0 mm 0 mps 749 mmHg 48%
    10:00 +29°C° 0 mm 1 mps 749 mmHg 41%
    11:00 +29°C° 0 mm 1 mps 749 mmHg 40%
    12:00 +29°C° 0 mm 2 mps 749 mmHg 39%
    13:00 +30°C° 0 mm 2 mps 749 mmHg 38%
    14:00 +29°C° 0 mm 2 mps 749 mmHg 41%
    15:00 +29°C° 0 mm 2 mps 749 mmHg 43%
    16:00 +28°C° 0 mm 2 mps 749 mmHg 46%
    17:00 +27°C° 0 mm 2 mps 748 mmHg 52%
    18:00 +26°C° 0 mm 2 mps 748 mmHg 59%
    19:00 +24°C° 0 mm 2 mps 748 mmHg 65%
    20:00 +23°C° 0 mm 2 mps 748 mmHg 69%
    21:00 +22°C° 0 mm 1 mps 748 mmHg 72%
    22:00 +21°C° 0 mm 1 mps 748 mmHg 76%
    23:00 +20°C° 0 mm 2 mps 748 mmHg 75%

    Tomorrow, 21 July, Sunday

    Time Temperature Precipitation Wind Pressure Humidity
    00:00 +19°C° 0 mm 2 mps 748 mmHg 75%
    01:00 +19°C° 0 mm 2 mps 748 mmHg 75%
    02:00 +19°C° 0.1 mm 2 mps 747 mmHg 77%
    03:00 +18°C° 0.1 mm 2 mps 747 mmHg 79%
    04:00 +18°C° 0.1 mm 2 mps 747 mmHg 82%
    05:00 +19°C° 0.5 mm 2 mps 747 mmHg 82%
    06:00 +19°C° 0.5 mm 3 mps 747 mmHg 82%
    07:00 +20°C° 0.5 mm 3 mps 747 mmHg 82%
    08:00 +21°C° 0.3 mm 3 mps 747 mmHg 79%
    09:00 +24°C° 0.3 mm 3 mps 748 mmHg 76%
    10:00 +25°C° 0.3 mm 3 mps 748 mmHg 73%
    11:00 +26°C° 0.3 mm 3 mps 748 mmHg 67%
    12:00 +27°C° 0.3 mm 4 mps 748 mmHg 62%
    13:00 +27°C° 0.3 mm 4 mps 748 mmHg 56%
    14:00 +27°C° 0.1 mm 4 mps 748 mmHg 55%
    15:00 +27°C° 0.1 mm 5 mps 748 mmHg 55%
    16:00 +27°C° 0.1 mm 5 mps 749 mmHg 54%
    17:00 +25°C° 0.2 mm 4 mps 749 mmHg 62%
    18:00 +22°C° 0.2 mm 4 mps 749 mmHg 69%
    19:00 +21°C° 0.2 mm 3 mps 749 mmHg 76%
    20:00 +20°C° 0 mm 3 mps 749 mmHg 80%
    21:00 +18°C° 0 mm 3 mps 750 mmHg 83%
    22:00 +17°C° 0 mm 2 mps 750 mmHg 87%
    23:00 +17°C° 0 mm 3 mps 750 mmHg 88%

    Day after tomorrow, 22 July, Monday

    Time Temperature Precipitation Wind Pressure Humidity
    00:00 +17°C° 0 mm 3 mps 750 mmHg 89%
    01:00 +15°C° 0 mm 4 mps 750 mmHg 91%
    02:00 +17°C° 0 mm 4 mps 751 mmHg 90%
    03:00 +17°C° 0 mm 4 mps 751 mmHg 88%
    04:00 +17°C° 0 mm 4 mps 751 mmHg 87%
    05:00 +18°C° 0 mm 4 mps 751 mmHg 83%
    06:00 +18°C° 0 mm 4 mps 752 mmHg 79%
    07:00 +17°C° 0 mm 5 mps 752 mmHg 75%
    08:00 +19°C° 0 mm 5 mps 752 mmHg 67%
    09:00 +21°C° 0 mm 5 mps 753 mmHg 58%
    10:00 +22°C° 0 mm 5 mps 753 mmHg 50%
    11:00 +23°C° 0 mm 5 mps 753 mmHg 48%
    12:00 +23°C° 0 mm 5 mps 753 mmHg 47%
    13:00 +23°C° 0 mm 5 mps 753 mmHg 46%
    14:00 +23°C° 0 mm 5 mps 753 mmHg 47%
    15:00 +23°C° 0 mm 5 mps 753 mmHg 47%
    16:00 +23°C° 0 mm 5 mps 753 mmHg 48%
    17:00 +22°C° 0 mm 4 mps 753 mmHg 53%
    18:00 +20°C° 0 mm 4 mps 753 mmHg 58%
    19:00 +19°C° 0 mm 3 mps 753 mmHg 63%
    20:00 +18°C° 0 mm 3 mps 753 mmHg 68%
    21:00 +17°C° 0 mm 2 mps 753 mmHg 74%
    22:00 +16°C° 0 mm 2 mps 753 mmHg 79%
    23:00 +17°C° 0 mm 2 mps 753 mmHg 78%

    23 July, Tuesday

    Time Temperature Precipitation Wind Pressure Humidity
    00:00 +17°C° 0 mm 2 mps 753 mmHg 78%
    01:00 +17°C° 0 mm 2 mps 753 mmHg 78%
    02:00 +17°C° 0 mm 2 mps 753 mmHg 79%
    03:00 +17°C° 0 mm 2 mps 753 mmHg 80%
    04:00 +17°C° 0 mm 2 mps 752 mmHg 81%
    05:00 +17°C° 0 mm 2 mps 752 mmHg 81%
    06:00 +17°C° 0 mm 2 mps 752 mmHg 81%
    07:00 +17°C° 0 mm 2 mps 752 mmHg 82%
    08:00 +18°C° 0 mm 2 mps 752 mmHg 81%
    09:00 +19°C° 0 mm 2 mps 752 mmHg 80%
    10:00 +20°C° 0 mm 3 mps 753 mmHg 79%
    11:00 +21°C° 0 mm 3 mps 752 mmHg 74%
    12:00 +22°C° 0 mm 3 mps 752 mmHg 69%
    13:00 +25°C° 0 mm 3 mps 752 mmHg 64%
    14:00 +25°C° 0 mm 3 mps 752 mmHg 63%
    15:00 +25°C° 0 mm 4 mps 752 mmHg 62%
    16:00 +26°C° 0 mm 4 mps 752 mmHg 61%
    17:00 +25°C° 0 mm 3 mps 752 mmHg 64%
    18:00 +24°C° 0 mm 3 mps 751 mmHg 68%
    19:00 +22°C° 0 mm 3 mps 751 mmHg 72%
    20:00 +21°C° 0 mm 2 mps 751 mmHg 78%
    21:00 +19°C° 0 mm 2 mps 751 mmHg 85%
    22:00 +19°C° 0 mm 1 mps 752 mmHg 92%
    23:00 +19°C° 0 mm 1 mps 752 mmHg 93%

    24 July, Wednesday

    Time Temperature Precipitation Wind Pressure Humidity
    00:00 +18°C° 0 mm 1 mps 752 mmHg 95%
    01:00 +18°C° 0 mm 1 mps 752 mmHg 97%
    02:00 +18°C° 0 mm 1 mps 751 mmHg 97%
    03:00 +17°C° 0 mm 2 mps 751 mmHg 97%
    04:00 +17°C° 0 mm 2 mps 751 mmHg 97%
    05:00 +18°C° 0 mm 2 mps 751 mmHg 90%
    06:00 +20°C° 0 mm 2 mps 752 mmHg 84%
    07:00 +23°C° 0 mm 2 mps 752 mmHg 77%
    08:00 +25°C° 0 mm 2 mps 752 mmHg 69%
    09:00 +26°C° 0 mm 2 mps 752 mmHg 62%
    10:00 +28°C° 0 mm 2 mps 752 mmHg 54%
    11:00 +29°C° 0 mm 2 mps 752 mmHg 49%
    12:00 +30°C° 0 mm 2 mps 752 mmHg 45%
    13:00 +31°C° 0 mm 2 mps 752 mmHg 41%
    14:00 +31°C° 0 mm 3 mps 752 mmHg 40%
    15:00 +31°C° 0 mm 3 mps 752 mmHg 40%
    16:00 +30°C° 0 mm 3 mps 752 mmHg 39%
    17:00 +29°C° 0 mm 3 mps 752 mmHg 47%
    18:00 +27°C° 0 mm 2 mps 752 mmHg 54%
    19:00 +25°C° 0 mm 2 mps 752 mmHg 61%
    20:00 +23°C° 0 mm 1 mps 752 mmHg 69%
    21:00 +21°C° 0 mm 1 mps 752 mmHg 77%
    22:00 +20°C° 0 mm 1 mps 752 mmHg 85%
    23:00 +17°C° 0 mm 0 mps 752 mmHg 86%

    25 July, Thursday

    Time Temperature Precipitation Wind Pressure Humidity
    00:00 +17°C° 0 mm 0 mps 752 mmHg 87%
    01:00 +16°C° 0 mm 0 mps 752 mmHg 88%
    02:00 +16°C° 0 mm 0 mps 752 mmHg 87%
    03:00 +16°C° 0 mm 0 mps 752 mmHg 87%
    04:00 +15°C° 0 mm 0 mps 752 mmHg 87%
    05:00 +18°C° 0 mm 0 mps 752 mmHg 77%
    06:00 +20°C° 0 mm 0 mps 753 mmHg 67%
    07:00 +22°C° 0 mm 0 mps 753 mmHg 57%
    08:00 +25°C° 0 mm 0 mps 753 mmHg 49%
    09:00 +27°C° 0 mm 0 mps 753 mmHg 42%
    10:00 +31°C° 0 mm 1 mps 754 mmHg 35%
    11:00 +32°C° 0 mm 1 mps 753 mmHg 33%
    12:00 +32°C° 0 mm 1 mps 753 mmHg 32%
    13:00 +34°C° 0 mm 2 mps 753 mmHg 31%
    14:00 +34°C° 0 mm 2 mps 753 mmHg 32%
    15:00 +33°C° 0 mm 3 mps 753 mmHg 34%
    16:00 +33°C° 0 mm 3 mps 753 mmHg 36%
    17:00 +30°C° 0 mm 3 mps 752 mmHg 44%
    18:00 +28°C° 0 mm 3 mps 752 mmHg 52%
    19:00 +26°C° 0 mm 3 mps 752 mmHg 61%
    20:00 +24°C° 0 mm 3 mps 752 mmHg 67%
    21:00 +21°C° 0 mm 3 mps 752 mmHg 74%
    22:00 +19°C° 0 mm 2 mps 753 mmHg 81%
    23:00 +19°C° 0 mm 2 mps 753 mmHg 84%
    Show more